Regional Weather Roundup
Issued by NWS

Home | Current Version | Previous Version | Text Only | Print | Product List | Glossary Off
Versions: 1 2 3 4 5 6 7 8 9 10 11 12 13 14 15 16 17 18 19 20 21 22 23 24 25 26 27 28 29 30 31 32 33 34 35 36 37 38 39 40 41 42 43 44 45 46 47 48 49 50

000
ASUS45 KTFX 281204
RWRMT
MONTANA HOURLY WEATHER ROUNDUP
NATIONAL WEATHER SERVICE GREAT FALLS MT
604 AM MDT MON JUL 28 2014

NOTE: "FAIR" INDICATES FEW OR NO CLOUDS BELOW 12000 FEET WITH NO
SIGNIFICANT WEATHER AND/OR OBSTRUCTIONS TO VISIBILITY.

* THESE STATIONS ARE NOT UNDER NWS QUALITY CONTROL. THEY DO NOT
   REPORT WEATHER SUCH AS PRECIPITATION OR FOG.

MTZ001>007-043-281300-
WEST OF THE DIVIDE
CITY           SKY/WX    TMP DP  RH WIND       PRES   REMARKS
KALISPELL      PTCLDY    55  46  72 NW5       30.18S
MISSOULA       PTCLDY    57  43  60 N3        30.20R
BUTTE          PTCLDY    48  34  59 SE3       30.33S
MULLAN PASS    MOCLDY    64  36  35 CALM      30.33R
* ESSEX        N/A       52  41  66 SE6        N/A
* LINCOLN      N/A       44  40  86 NE1        N/A
* LOOKOUT PASS N/A       60  43  54 SE1        N/A
* POLSON       N/A       60  46  60 N/A        N/A
* RONAN APT    MOCLDY    57  50  78 N/A        N/A
* SEELEY LAKE  N/A       44  38  80 NE2        N/A
* THOMP F APT  CLOUDY    66  29  25 N4         N/A
* YAAK HILL    N/A       58  47  67 N/A        N/A
$$

MTZ008-052>055-281300-
SOUTHWEST MONTANA
CITY           SKY/WX    TMP DP  RH WIND       PRES   REMARKS
BOZEMAN        PTCLDY    61  39  44 NW3       30.28R
DILLON         PTCLDY    54  36  51 S10       30.30R
W YELLOWSTONE  MOCLDY    43  36  76 CALM      30.42R
* THREE FORKS  PTCLDY    48  48 100 N/A        N/A
* BOULDER HILL N/A       59  32  36 S6         N/A
* RAYNOLDS PAS N/A       52  13  21 NE1        N/A
* WHITEHALL    N/A       62  38  41 NE6        N/A
* WISE RIVER   N/A       47  31  54 SW2        N/A
$$

MTZ009>010-012-014-046-048-049-054-281300-
EAST SLOPES AND CENTRAL MONTANA
CITY           SKY/WX    TMP DP  RH WIND       PRES   REMARKS
CUT BANK       PTCLDY    52  43  72 CALM      30.26R
GREAT FALLS    MOCLDY    57  41  55 SW8       30.22S
HELENA         PTCLDY    61  37  41 CALM      30.24F
* CONRAD       PTCLDY    45  45 100 N/A        N/A
* DEARBORN     N/A       55  41  59 S2         N/A
* EAST GLACIER N/A       47  40  77 W2         N/A
* ROGERS PASS  N/A       58  35  42 NW2        N/A
* SAINT MARY   N/A       39  37  93 SE3        N/A
* SWEET GRASS  N/A       61  43  52 S17G23     N/A
$$

MTZ011-013-016-021-035-040-045-047-050-051-281300-
NORTH CENTRAL MONTANA
CITY           SKY/WX    TMP DP  RH WIND       PRES   REMARKS
HAVRE          CLEAR     55  46  72 NE10      30.21S
LEWISTOWN      CLEAR     61  43  52 SE13      30.29S
* CHESTER      N/A       64  43  47 SE8G15     N/A
* DENTON       N/A       60  40  48 SE9        N/A
* JUDITH GAP   N/A       52  42  69 N/A        N/A
* LOMA         N/A       65  44  47 E13G21     N/A
$$

MTZ017>020-022>027-061-062-281300-
NORTHEAST MONTANA
CITY           SKY/WX    TMP DP  RH WIND       PRES   REMARKS
GLASGOW        CLEAR     55  50  83 E10       30.26S
GLENDIVE       CLEAR     55  50  83 SE5       30.32F
JORDAN         CLEAR     48  41  77 W3        30.28R
SIDNEY         CLEAR     52  46  80 CALM      30.32S
WOLF POINT     CLEAR     52  48  86 E6        30.29S
* BEAVER HILL  N/A       52  50  93 SE8        N/A
* CIRCLE       N/A       56  50  80 N/A        N/A
* LINDSAY DVD  N/A       51  49  93 SE2        N/A
* NAVAJO       N/A       52  50  93 SE6        N/A
$$

MTZ028>042-056>058-281300-
SOUTHCENTRAL AND SOUTHEAST MONTANA
CITY           SKY/WX    TMP DP  RH WIND       PRES   REMARKS
BAKER          CLEAR     52  48  86 E7        30.33S
BILLINGS       FAIR      63  43  48 N7        30.27R
LIVINGSTON     PTCLDY    54  39  57 W3        30.32R
MILES CITY     CLEAR     61  54  78 SE6       30.28S
* LAUREL APT   CLEAR     57  39  51 N/A        N/A
* ROUNDUP APT  CLEAR     57  39  51 N/A        N/A
* ALZADA       N/A       53  51  93 E5         N/A
* HYSHAM       N/A       64  43  47 E7G12      N/A
* REED POINT   N/A       49  42  77 N/A        N/A
* ROSCOE HILL  N/A       59  36  42 W3         N/A
$$

REGIONAL REPORTS...DAKOTAS
CITY           SKY/WX    TMP DP  RH WIND       PRES   REMARKS
WILLISTON      PTCLDY    54  50  86 CALM      30.32S
DICKINSON      CLEAR     48  46  93 S5        30.33F
CROSBY         N/A       54  54 100 SW7       30.32S
TIOGA          CLOUDY    50  50 100 S3        30.36S
WATFORD CITY   CLEAR     48  48 100 CALM      30.31S
BISMARCK       CLEAR     45  45 100 CALM      30.35S
GRAND FORKS    CLOUDY    59  55  87 NW5       30.26R
FARGO          CLOUDY    61  55  81 NW7       30.26R
BUFFALO SD     CLEAR     52  48  86 E7        30.28S
RAPID CITY     MOCLDY    54  52  93 SE3       30.35S
$$

REGIONAL REPORTS...WYOMING/IDAHO/WASHINGTON
CITY           SKY/WX    TMP DP  RH WIND       PRES   REMARKS
GILLETTE       CLEAR     59  48  67 S7        30.34F
SHERIDAN       CLEAR     48  43  83 NW3       30.29S
YELLOWSTONE LA PTCLDY    39  34  82 NW3       30.52R
SALMON         MOCLDY    52  41  66 CALM      30.21R
MULLAN PASS    MOCLDY    64  36  35 CALM      30.33S
SAND POINT     CLOUDY    59  50  72 CALM      30.15R
SPOKANE        CLOUDY    70  45  41 SE5       30.12R

$$




USA.gov is the U.S. government's official web portal to all federal, state and local government web resources and services.